NIMBUS 2 DEB

Satellite information

Favourite Embed

Satellite Type and Status

DEBRISIN ORBIT

Key statistics

Satellite NIMBUS 2 DEB at a glance.

Uptime

21666

Days in orbit

Revolutions

≈ 13.5

Per day

Orbit

SSO

Sun Synchronous Orbit

Inclination

100.5

Latest

Satellite identification and parameters

Extended collection of information and parameters for NIMBUS 2 DEB.

Object identification

Identified? True

Debris? True

Object name: NIMBUS 2 DEB

International designator: 1966-040AR

Object number (NORAD): 31579

Object ID (CCSDS): 31579

Country: UNITED STATES OF AMERICA (US)

Current information (Y/N): Y

RCS size: SMALL

Orbital parameters

Period: 106.708 minutes

Inclination: 100.5071 deg

SMA: 7452.337 km

Apoapsis: 1108.129 km

Periapsis: 1040.275 km

RAAN: 211.0271 deg

Eccentricy: 0.00455252

Argument of periapsis: 99.7463 deg

Mean anomaly: 51.5869 deg

Mean motion: 13.49472457 rev/day

Mean motion (dot): 0.00002366 rev/day2

B* drag term: 0.0038031203 1/REarth

Two-line elements (TLE)

Creation date: Sept. 8, 2025, 3:16 a.m.

Reference frame: TEME

Reference center: EARTH

Epoch: Sept. 7, 2025, 9:22 a.m. UTC

TLE line 0: 0 NIMBUS 2 DEB

TLE line 1: 1 31579U 66040AR 25250.39065977 .00002366 00000-0 38031-2 0 9995

TLE line 2: 2 31579 100.5071 211.0271 0045525 99.7463 51.5869 13.49472457898199

Live tracking on map

Real-time ground track for satellite NIMBUS 2 DEB.

In-orbit conjunctions

A list of the most updated potential collisions computed for object NIMBUS 2 DEB.

Target Orbit TCA Probability of collision Miss distance Type
JAS 1B (FUJI 2) SSO 2024-11-01 14:26:21 0.0001019651 323.0 (m) PAYLOAD
NIMBUS 2 DEB SSO 2024-07-14 21:56:14 0.0003679919 221.0 (m) DEBRIS

Associated space launch

Nimbus 2, the second in a series of second-generation meteorological research-and-development satellites, added an additional medium-resolution infrared radiometer (MRIR) compared to Nimbus 1.

NIMBUS 2 DEB was lifted into orbit during the mission ‘Thor SLV-2A Agena B | Nimbus 2’, on board a Thor SLV-2A Agena B space rocket.

The launch took place on May 15, 1966, 7:55 a.m. from Space Launch Complex 2E.

For more information about the launch, click the button.

Launch to space Thor SLV-2A Agena B | Nimbus 2
Thor SLV-2A Agena B | Nimbus 2

Agency: N/A

Status: Launch Successful

Launch date: May 15, 1966, 7:55 a.m. UTC

Rocket: Thor SLV-2A Agena B

Launch pad: Space Launch Complex 2E

Location: Vandenberg SFB, CA, USA

...

Latest news about this satellite

There are no fresh news available about this satellite. Check back as we update our databases every day.


Newsletter sign-up

Weekly statistics, charts and insights to help you stay on top of the space industry.